Когалы

Казахстан     44°28′21″N   78°40′09″E
темп.,
°C
ветер,
м/с
пор.,
м/с
влажн.,
%
обл.,
%
осадки,
мм/ч
давл.,
гПа
погр.,
м
25 февраля, чт
чт2500:00−7всв4692100 2.4 1018180
03:00−9с3497100 0.9 1021219
06:00−12ссз2397100 2.5 1026197
09:00−14ссз4596100 2.4 1030728
12:00−15с4592100 3.8 1033762
15:00−15ссз2384100 0.1 1035578
18:00−18ссв1283100 0.1 103722
21:00−21в1174100 0.0 103920
26 февраля, пт
пт2600:00−21в227295 0.0 104020
03:00−21в237596 0.0 104120
06:00−21в237198 0.0 104220
09:00−20вюв226533 0.0 104221
12:00−15ююв115416 0.0 1040366
15:00−13с01540 0.0 1038509
18:00−19всв017411 0.0 103820
21:00−19юв337548 0.0 103820
27 февраля, сб
сб2700:00−19юв338161 0.0 103626
03:00−18юв337391 0.0 103525
06:00−18юв337092 0.0 103323
09:00−14ююв2270100 0.0 103337
12:00−9вюв1149100 0.0 1032230
15:00−9сз1156100 0.0 1031310
18:00−12зсз1179100 0.0 103321
21:00−14ю1163100 0.0 103420
28 февраля, вс
вс2800:00−13вюв1262100 0.0 103421
03:00−14юв237287 0.0 103421
06:00−14юв337164 0.0 103421
09:00−12юв44730 0.0 103359
12:00−7юв55730 0.0 1029231
15:00−6юв45730 0.0 1027215
18:00−9юв447015 0.0 102640
21:00−10юв44590 0.0 102532
1 марта, пн
пн100:00−9юв44510 0.0 102431
03:00−8юв44460 0.0 102228
06:00−8юв44440 0.0 102224
09:00−6юв33540 0.0 102227
12:00−1юв33670 0.0 1021113
15:000ююв22710 0.0 1020107
18:00−5ююв115230 0.0 102121
21:00−7юв123915 0.0 102321